Simultaneous Nadir Overpasses (SNOs) Predictions

Prediction of SNOs between METOP-B and NOAA-19 Satellite Orbit:

Table of predicted SNOs for the next 14.0 days since TLE Epoch: 6/11/2016
Index Date (METOP-B) Time (METOP-B) Lat,Lon (METOP-B) SZA (METOP-B ) Date (NOAA-19) Time (NOAA-19) Lat,Lon (NOAA-19) SZA (NOAA-19 ) Distance(km) Time Diff (sec)
1 06/15/2016 10:32:01 -76.09,-157.39 127.32 06/15/2016 10:30:46 -76.12,-157.45 127.30 3.02 75
2 06/15/2016 11:22:42 76.06, 9.83 52.65 06/15/2016 11:21:50 76.08, 9.92 52.67 3.04 52
3 06/15/2016 12:13:23 -76.07, 177.21 127.34 06/15/2016 12:12:47 -76.07, 177.22 127.35 0.58 36
4 06/15/2016 13:04:04 76.04, -15.57 52.63 06/15/2016 13:03:52 76.07, -15.57 52.66 3.53 12
5 06/15/2016 13:54:45 -76.06, 151.80 127.36 06/15/2016 13:54:49 -76.07, 151.72 127.35 2.65 4
6 06/15/2016 14:45:26 76.02, -40.97 52.61 06/15/2016 14:45:53 76.03, -40.91 52.61 1.76 27
7 06/15/2016 15:36:07 -76.04, 126.40 127.38 06/15/2016 15:36:50 -76.02, 126.38 127.40 1.94 43
8 06/15/2016 16:26:48 76.01, -66.37 52.59 06/15/2016 16:27:55 76.02, -66.41 52.61 2.24 67
9 06/15/2016 17:17:36 -75.70, 99.93 127.73 06/15/2016 17:18:45 -75.70, 101.98 127.72 56.37 69




NCC Satellite Simultaneous Nadir Overpasses (SNOs) Prediction Service
